Weather History for Chillicothe, MO

Change the Weather History Date:

Sunday, June 23, 2013

  Actual Average (KIRK) Record (KIRK)
Temperature  
Mean Temperature 78 °F 73 °F  
Max Temperature 84 °F 83 °F 100 °F (1934)
Min Temperature 71 °F 62 °F 49 °F (1936)
Degree Days  
Heating Degree Days 0 0  
Month to date heating degree days 12  
Since 1 June heating degree days 12  
Since 1 July heating degree days 5852  
Cooling Degree Days 12 8  
Month to date cooling degree days 133  
Year to date cooling degree days 195  
Since 1 June cooling degree days 133  
Growing Degree Days 28 (Base 50)    
Moisture  
Dew Point 68 °F    
Average Humidity 78    
Maximum Humidity 87    
Minimum Humidity 65    
Precipitation  
Precipitation 0.30 in 0.14 in 1.77 in (1978)
Month to date precipitation 3.97  
Year to date precipitation 18.12  
Sea Level Pressure  
Sea Level Pressure 29.90 in    
Wind  
Wind Speed 7 mph (SE)    
Max Wind Speed 14 mph    
Max Gust Speed 25 mph    
T = Trace of Precipitation, MM = Missing Value Source: NWS Daily Summary

Daily Weather History Graph

Daily Weather History Graph

Search for Another Location

Airport:

Trip Planner

Search our weather history database for the weather conditions in past years. The results will help you decide how hot, cold, wet, or windy it might be!

Date:

Astronomy

Jun. 23, 2013 Rise Set
Actual Time 5:46 AM CDT 8:46 PM CDT
Civil Twilight 5:14 AM CDT 9:19 PM CDT
Nautical Twilight 4:32 AM CDT 10:00 PM CDT
Astronomical Twilight 3:44 AM CDT 10:48 PM CDT
Moon 8:59 PM CDT (6/23) 6:04 AM CDT (6/23)
Length of Visible Light 16h 05m
Length of Day
14h 59m
Full, 100% of the Moon is Illuminated
Jun 23
Full
Jun 29
Last Quarter
Jul 8
New
Jul 15
First Quarter
Jul 22
Full

Hourly Weather History & Observations

Time (CDT) Temp. Heat Index Dew Point Humidity Pressure Visibility Wind Dir Wind Speed Gust Speed Precip Events Conditions
12:52 AM 80.1 °F 83.8 °F 72.0 °F 76% 29.90 in - South 8.1 mph - N/A   Unknown
1:52 AM 79.0 °F - 71.1 °F 77% 29.88 in - South 6.9 mph - N/A   Unknown
2:52 AM 78.1 °F - 69.1 °F 74% 29.87 in - South 8.1 mph - N/A   Unknown
3:52 AM 75.9 °F - 68.0 °F 76% 29.88 in - South 8.1 mph - N/A   Unknown
4:52 AM 73.9 °F - 68.0 °F 82% 29.89 in - South 4.6 mph - N/A   Unknown
5:52 AM 73.0 °F - 68.0 °F 84% 29.88 in - South 5.8 mph - N/A   Unknown
6:52 AM 73.9 °F - 68.0 °F 82% 29.87 in - SSE 5.8 mph - N/A   Unknown
7:52 AM 77.0 °F - 69.1 °F 76% 29.87 in - South 6.9 mph - N/A   Unknown
8:52 AM 80.1 °F 83.6 °F 71.1 °F 74% 29.89 in - South 8.1 mph - N/A   Unknown
9:52 AM 84.0 °F 89.0 °F 71.1 °F 65% 29.91 in - Variable 6.9 mph - N/A   Unknown
10:52 AM 71.1 °F - 66.0 °F 84% 29.97 in - North 11.5 mph 19.6 mph 0.04 in   Unknown
11:52 AM 72.0 °F - 68.0 °F 87% 29.98 in - NNE 5.8 mph - 0.26 in   Unknown
12:52 PM 71.1 °F - 66.0 °F 84% 29.95 in - East 9.2 mph - N/A   Unknown
1:52 PM 72.0 °F - 66.0 °F 81% 29.90 in - SE 9.2 mph 16.1 mph N/A   Unknown
2:52 PM 72.0 °F - 66.9 °F 84% 29.84 in - ESE 13.8 mph 25.3 mph N/A   Unknown
3:52 PM 73.9 °F - 69.1 °F 85% 29.88 in - Variable 4.6 mph - N/A   Unknown
4:52 PM 75.0 °F - 69.1 °F 82% 29.89 in - Calm Calm - N/A   Unknown
5:52 PM 77.0 °F - 68.0 °F 74% 29.87 in - Calm Calm - N/A   Unknown
6:52 PM 78.1 °F - 69.1 °F 74% 29.86 in - East 3.5 mph - N/A   Unknown
7:52 PM 77.0 °F - 66.9 °F 71% 29.89 in - ESE 5.8 mph - N/A   Unknown
8:52 PM 75.0 °F - 66.0 °F 73% 29.89 in - Variable 3.5 mph - N/A   Unknown
9:52 PM 73.9 °F - 66.0 °F 76% 29.91 in - SE 6.9 mph - N/A   Unknown
10:52 PM 73.0 °F - 66.9 °F 81% 29.94 in - SE 4.6 mph - N/A   Unknown
11:52 PM 73.0 °F - 66.9 °F 81% 29.93 in - SE 6.9 mph - N/A   Unknown